Location: Mason Neck State Park
(38.6428°N, 77.1981°W)
Time: 15:52:50
(UTC-04:00)

Daily predictions for brighter satellites

Satellite Brightness Start Highest point End
(mag) Time Altitude Azimuth Time Altitude Azimuth Time Altitude Azimuth
Cosmos 2369 Rocket 3.3 20:52:23 10° N 20:57:21 30° ENE 21:02:14 10° ESE
COSMOS 2455 2.8 20:55:09 10° SSW 21:01:09 80° ESE 21:07:10 10° NNE
Cosmos 1666 2.9 20:58:16 10° N 21:02:11 80° W 21:06:03 10° S
ERS-1 Rocket 3.1 20:58:57 10° SSE 21:03:52 61° ENE 21:08:49 10° N
CZ-4 DEB 3.4 21:02:51 10° S 21:06:01 58° WSW 21:09:13 10° NNW
BREEZE-M DEB (TANK) 1.8 21:09:11 10° NW 21:11:45 66° SW 21:13:40 12° SE
Resurs 01 Rocket 4.5 21:09:17 10° SW 21:11:45 15° W 21:14:14 10° WNW
SJ-11-01 4.3 21:09:53 10° SSE 21:14:31 69° ENE 21:19:10 10° N
GRACE-1 4.3 21:12:33 10° NNE 21:15:20 45° E 21:18:04 10° SSE
GRACE-2 4.3 21:13:00 10° NNE 21:15:46 46° E 21:18:32 10° SSE
Envisat 3.4 21:17:08 10° SE 21:21:58 47° ENE 21:26:51 10° N
GEOS 3 Rocket 3.7 21:18:19 11° SE 21:23:25 78° NE 21:28:39 10° NNW
Cosmos 407 Rocket 4.0 21:19:31 10° SSE 21:24:23 38° ESE 21:29:11 10° NE
Milstar 3 Cent rocket 4.3 21:22:08 10° WSW 21:27:42 18° SW 21:31:42 10° S
Cosmos 1515 3.6 21:29:18 10° S 21:33:08 72° E 21:37:00 10° NNE
CZ-2C R/B 2.1 21:31:43 10° SSW 21:33:47 30° W 21:35:52 10° NNW
SL-27 R/B 4.2 21:36:56 15° E 21:36:56 15° E 21:38:46 10° ENE
Cosmos 1825 Rocket 3.7 21:33:56 10° S 21:38:16 56° E 21:42:37 10° NNE
UNK 4.5 21:34:16 10° NNE 21:39:40 51° ESE 21:45:20 10° S
Cosmos 1066 Rocket 4.3 21:35:33 10° S 21:41:10 62° E 21:46:54 10° NNE
COSMOS 2406 4.4 21:39:25 17° SE 21:41:49 22° E 21:46:04 10° NE
USA 186 4.4 21:42:06 10° WSW 21:43:06 12° W 21:44:07 10° WNW
ALOS 4.3 21:41:30 10° SSW 21:45:21 25° W 21:49:14 10° NW
Cosmos 1943 Rocket 3.3 21:42:06 10° N 21:46:57 30° ENE 21:50:21 17° ESE
Lacrosse 4 Rocket 1.3 21:43:20 10° SSW 21:47:22 85° WNW 21:51:29 10° NNE
Cosmos 1812 Rocket 4.2 21:43:10 10° NNW 21:47:29 56° W 21:51:49 10° S
Atlas Centaur 2 3.3 21:48:18 10° WSW 21:54:53 44° S 22:00:12 20° ESE
SeaSat 1 2.8 21:52:49 21° SE 21:55:53 52° ENE 22:00:41 10° NNW
Cosmos 1992 Rocket 4.3 21:50:56 10° NNW 21:56:06 67° WSW 22:00:17 16° S
Cosmos 1943 3.6 21:51:48 10° SSW 21:57:25 66° WNW 22:03:06 10° NNE
H-2A R/B 3.2 21:53:48 10° S 21:57:50 41° W 22:02:00 10° NNW
Meteor 1-22 Rocket 4.4 21:52:41 10° N 21:58:19 63° E 22:02:15 21° SSE
ISS -0.2 21:56:18 10° WNW 21:58:23 16° NNW 22:00:29 10° NNE
USA 81 4.2 22:07:58 10° N 22:13:15 76° W 22:17:13 18° S
CZ-4B R/B 3.5 22:09:19 10° NNE 22:14:29 86° ESE 22:19:12 13° SSW
CZ-4 R/B 4.0 22:10:27 10° NNE 22:15:25 60° ESE 22:18:13 25° S
Cosmos 1939 Rocket 4.5 22:12:46 11° SSW 22:16:22 32° W 22:20:06 10° NNW
Cosmos 1953 3.4 22:13:04 10° NNE 22:16:34 29° ENE 22:17:07 27° E
PSLV R/B 3.6 22:16:26 10° WNW 22:19:58 67° N 22:21:15 36° E
Terra 3.1 22:19:03 23° E 22:20:27 26° ENE 22:24:23 10° NNE
ARGOS 3.2 22:18:00 30° SE 22:20:43 65° ENE 22:26:06 10° N
ATLAS 3B R/B 3.5 22:14:42 10° SW 22:22:18 61° NW 22:29:46 10° NNE
Cosmos 1346 Rocket 3.5 22:19:41 13° SSW 22:23:01 51° WNW 22:26:53 10° N
SPOT 5 3.5 22:21:02 18° SSW 22:23:55 43° W 22:28:03 10° NNW
USA 245 4.0 22:21:16 27° SSE 22:24:30 88° ENE 22:29:22 10° NNW
Cosmos 1850 Rocket 4.5 22:24:44 34° SE 22:25:59 40° ESE 22:30:50 10° NE
Cosmos 1842 3.2 22:25:37 46° SSE 22:26:35 66° E 22:30:28 10° NNE
Cosmos 1953 Rocket 4.2 22:23:11 13° SSW 22:26:59 54° W 22:31:22 10° N
Cosmos-2242 3.4 22:22:42 10° N 22:27:00 50° E 22:28:02 41° ESE
MetOp-B 4.4 22:24:19 22° S 22:27:44 63° WSW 22:33:03 10° NNW
Cosmos 1634 Rocket 4.4 22:22:21 10° NNW 22:28:26 61° W 22:33:08 17° SSW
Cosmos 1140 Rocket 3.6 22:26:31 32° SSE 22:28:47 56° ESE 22:33:55 10° NNE
H-2A R/B 2.6 22:33:42 33° ESE 22:35:08 41° ENE 22:39:53 10° N
NOSS 3-2 (A) 4.2 22:35:29 29° ESE 22:35:34 29° ESE 22:41:00 10° NE
Meteor 1-21 4.4 22:31:59 17° SSW 22:36:34 77° W 22:42:25 10° N
Cosmos 1607 3.9 22:32:57 18° SSW 22:37:43 62° ESE 22:43:50 10° NE
USA 234 3.5 22:37:09 26° ESE 22:40:59 61° NE 22:47:27 10° NW
Cosmos 2369 Rocket 3.3 22:36:15 10° NW 22:41:22 36° WSW 22:44:34 20° SSW
SPOT 1/Viking Rocket 3.9 22:41:55 30° S 22:44:21 60° W 22:49:27 10° NNW
YAOGAN 6 3.7 22:43:54 31° SW 22:45:00 39° W 22:48:33 10° NNW
Cosmos 2279 Rocket 4.1 22:40:47 10° N 22:47:02 77° W 22:50:14 31° S
Cosmos 614 Rocket 4.1 22:48:02 47° SE 22:48:52 53° ESE 22:53:55 10° NNE
SL-08 RB Rocket 3.8 22:51:27 48° S 22:52:38 71° WSW 22:57:09 10° NNW
NOAA 11 4.3 22:51:03 37° S 22:53:11 71° WSW 22:58:37 10° NNW
Cosmos 1766 4.2 22:50:23 10° NNW 22:54:11 43° W 22:55:14 35° SW
SAR-Lupe-2 3.8 22:58:16 62° NE 22:58:16 62° NE 23:01:29 10° N
Cosmos 1340 4.1 23:00:49 27° NE 23:00:49 27° NE 23:03:04 10° NNE
Spot 2 4.4 22:54:55 10° NNE 22:59:49 65° ESE 23:00:35 56° SE
Meteor 2-5 Rocket 4.3 23:00:28 40° ESE 23:01:08 41° E 23:06:31 10° NNE
CARTOSAT-1 3.4 23:02:00 70° ESE 23:02:18 75° ENE 23:06:38 10° N
Cosmos 1544 4.1 22:58:58 10° N 23:01:55 38° NE 23:01:55 38° NE
CZ-4C R/B 2.6 23:03:35 40° E 23:03:35 40° E 23:08:26 10° NE
Cosmos 1758 3.4 23:01:15 10° NNW 23:05:22 72° W 23:05:36 69° SW
Okean 3 Rocket 4.3 23:08:05 39° ENE 23:08:05 39° ENE 23:11:38 10° NNE
USA 238 DEB 4.1 23:02:51 10° SW 23:09:53 65° NW 23:16:55 10° NNE
USA 238 4.1 23:02:56 10° SW 23:09:59 66° NW 23:17:01 10° NNE
DMSP B5D2-2 4.0 23:11:41 10° NNE 23:16:59 89° WNW 23:18:08 57° SSW
IGS 5A 3.4 23:19:53 78° WNW 23:19:53 78° WNW 23:23:53 10° NNW
Cosmos 1470 3.5 23:16:19 10° N 23:19:20 44° NE 23:19:20 44° NE
Cosmos 1805 3.8 23:16:47 10° NNW 23:20:29 51° W 23:20:29 51° W
COSMOS 2487 3.5 23:24:51 44° N 23:24:51 44° N 23:27:29 10° NNE
COSMOS 2406 4.0 23:21:23 16° SW 23:25:43 49° WNW 23:31:18 10° NNE
Cosmos 1943 Rocket 3.1 23:25:40 10° NW 23:30:42 36° WSW 23:31:53 33° SW
Cosmos 1842 Rocket 3.9 23:28:51 10° NNW 23:33:08 57° W 23:33:08 57° W
Cosmos 2082 Rocket 3.9 23:34:49 18° ENE 23:34:49 18° ENE 23:37:19 10° NE
Cosmos 1818 4.5 23:28:17 10° NNW 23:33:22 38° NE 23:34:29 34° ENE
SeaSat 1 4.3 23:32:37 18° WSW 23:33:38 19° WSW 23:37:06 10° WNW
CZ-4B R/B 4.3 23:37:33 11° NE 23:37:33 11° NE 23:38:14 10° NE
Cosmos 1656 Rocket 3.6 23:31:59 10° NNW 23:37:39 70° WSW 23:38:15 64° SSW
NOSS 3-2 (C) 3.3 23:43:08 64° S 23:44:03 77° ESE 23:50:39 10° NE
Atlas Centaur 2 3.9 23:37:25 10° WSW 23:42:50 30° SW 23:42:50 30° SW
Cosmos 1707 3.8 23:50:19 45° N 23:50:19 45° N 23:53:09 10° N
Cosmos 1092 Rocket 4.5 23:51:45 39° SW 23:53:46 55° W 23:59:55 10° N
